Flag for Austria Weather past 2 weeks in Melk, Lower Austria, Austria

Now
69 °F

Mild.


Feels Like: 69 °F
Forecast: 54 / 83 °F
Wind: 1 mph from West

Location: Amstetten

Current Time: Aug 2, 2015 at 3:14:26 AM

Latest Report: Aug 2, 2015 at 2:00 AM


Visibility: N/A

Pressure: 29.99 "Hg

Humidity: 62%

Dew point: 55 °F

Location of MelkLocation

Historic Weather in Melk — Graph

°F

Melk temperature yesterday

Maximum temperature yesterday: 85 °F (at 5:00 PM)
Minimum temperature yesterday: 56 °F (at 6:00 AM)
Average temperature yesterday: 71 °F

Past Weeks' High & Low Weather Summary

 TemperatureHumidityPressure
High97 °F (Jul 22, 4:00 PM)97% (Jul 21, 6:00 AM)30.08 "Hg (Jul 21, 6:00 AM)
Low55 °F (Jul 29, 7:00 AM)23% (Jul 31, 5:00 PM)29.67 "Hg (Jul 25, 4:00 AM)
Average73 °F63%29.90 "Hg
* Reported Jul 18 1:00 AM — Aug 2 1:00 AM, Melk, Weather by CustomWeather, © 2015

Note: Actual official high and low records may vary slightly from our data, if they occured in-between our weather recording intervals... More about our weather records

Advertising

Melk weather history for previous 24 hours

 ConditionsComfort  
Time TempWeatherWind HumidityBarometerVisibility
1:00 AM
Sun, Aug 2
69 °FMild.1 mph67%29.98 "HgN/A
12:00 AM69 °FMild.1 mph63%29.97 "HgN/A
10:00 PM
Sat, Aug 1
74 °FMild.No wind48%29.92 "HgN/A
9:00 PM77 °FMild.2 mph43%29.89 "HgN/A
8:00 PM80 °FPleasantly warm.2 mph37%29.87 "HgN/A
7:00 PM83 °FPleasantly warm.3 mph31%29.87 "HgN/A
6:00 PM84 °FPleasantly warm.3 mph29%29.85 "HgN/A
5:00 PM85 °FPleasantly warm.3 mph28%29.86 "HgN/A
4:00 PM84 °FPleasantly warm.3 mph29%29.86 "HgN/A
3:00 PM84 °FPleasantly warm.2 mph30%29.88 "HgN/A
2:00 PM81 °FPleasantly warm.3 mph32%29.90 "HgN/A
1:00 PM79 °FPleasantly warm.5 mph35%29.91 "HgN/A
12:00 PM75 °FMild.5 mph40%29.93 "HgN/A
11:00 AM73 °FMild.5 mph44%29.93 "HgN/A
10:00 AM68 °FMild.6 mph51%29.94 "HgN/A
9:00 AM65 °FMild.6 mph56%29.95 "HgN/A
8:00 AM61 °FScattered clouds.3 mph62%29.96 "HgN/A
7:00 AM58 °FCool.2 mph69%29.96 "HgN/A
6:00 AM56 °FCool.2 mph73%29.96 "HgN/A
5:00 AM59 °FCool.3 mph66%29.97 "HgN/A
4:00 AM60 °FCool.2 mph64%29.97 "HgN/A
3:00 AM62 °FCool.3 mph60%29.96 "HgN/A
Weather by CustomWeather, © 2015

See weather overviewHow to use our weather pages